Regional Weather Roundup
Issued by NWS Binghamton, NY

Home | Current Version | Previous Version | Text Only | Print | Product List | Glossary On
Versions: 1 2 3 4 5 6 7 8 9 10 11 12 13 14 15 16 17 18 19 20 21 22 23 24 25 26 27 28 29 30 31 32 33 34 35 36 37 38 39 40 41 42 43 44 45 46 47 48 49
000
ASUS41 KBGM 051010
RWRBGM
RWRBGM
BINGHAMTON REGIONAL WEATHER ROUNDUP
NATIONAL WEATHER SERVICE BINGHAMTON NY
600 AM EDT SAT SEP 05 2015

Note: "fair" indicates few or no clouds below 12,000 feet with no
significant weather and/or obstructions to visibility.

* = Station(s) that does not report precipitation, such as rain,
snow, etc, also no thunder or fog.

!NYZ009-015>018-022>025-036-037-044>046-055>057-062-051100
...CENTRAL NEW YORK...

CITY           SKY/WX    TMP DP  RH WIND       PRES   REMARKS
BINGHAMTON     CLEAR     64  63  96 SE6       30.26R FOG
CORTLAND       MOCLDY    66  64  94 CALM      30.26R
DANSVILLE      CLEAR     66  64  93 SE6       30.19S
ELMIRA         CLOUDY    71  67  87 SE5       30.21R
ITHACA         PTCLDY    68  64  86 S7        30.24R
HORNELL        CLEAR     61  61 100 CALM        N/A  FOG
MONTICELLO     CLOUDY    63  63 100 CALM      30.29R
NORWICH        CLOUDY    63  63 100 CALM      30.26S FOG
ONEONTA        CLEAR     63  61  94 CALM      30.29R
PENN YAN       CLEAR     64  62  93 S3        30.20R FOG
ROME           PTCLDY    63  60  90 E6        30.24R
SIDNEY         CLOUDY    64  64 100 CALM      30.26R FOG
SYRACUSE       PTCLDY    66  65  96 E7        30.20R
$$

!PAZ038>040-043-044-047-048-072-051100
...NORTHEAST PENNSYLVANIA...

CITY           SKY/WX    TMP DP  RH WIND       PRES   REMARKS
HAZLETON       CLOUDY    64  61  88 SE5       30.30R
SCRANTON       CLOUDY    68  61  78 CALM      30.25S
TOWANDA*       CLEAR     70  64  83 MISG      30.24R
$$
&&
KEY
WCI = WIND CHILL INDEX
VSB = VISIBILITY
HX  = HEAT INDEX
$$


USA.gov is the U.S. government's official web portal to all federal, state and local government web resources and services.